SKY MEXICO-1

Last updated on Fri Jul 10 2026 00:03:04 GMT+0000 (Coordinated Universal Time)

1 40664U 15026B 26190.23543235 -.00000220 00000+0 00000+0 0 9992 2 40664 0.0159 344.1082 0002434 146.8958 162.1271 1.00269950 40672
UTC large
Height (km)
Speed (km/s)
/
Latitude / Longitude
Inclination (degrees)
Orbital Period (minutes)
Azimuth
Elevation
Range (km)
Doppler Factor

Next 0 passes for location: London (51.5072 / 0.1276)

No passes found over London.
SKY MEXICO-1